FW5236 Weather Reports


Display with metric or nautical units.
time (UTC)temp
F
wind
direction
speed
MPH
gust
MPH
rain 1hr
in
rain 24hr
in
rain mn
in
humidity
%
barometer
mb
20260831094604 52 226 0.0 3.0 0.00 0.00 0.00 66 1017.5
20260831093030 53 228 2.0 4.0 0.00 0.00 0.00 66 1017.5
20260831084529 54 224 2.0 5.0 0.00 0.00 0.00 63 1017.9
20260831083107 54 225 2.0 4.0 0.00 0.00 0.00 62 1017.9
20260831074535 54 228 2.0 4.0 0.00 0.00 0.00 62 1017.9
20260831073030 55 226 1.0 4.0 0.00 0.00 0.00 61 1017.9
20260831070039 55 225 2.0 4.0 0.00 0.00 0.00 61 1018.0
20260831064529 56 225 1.0 3.0 0.00 0.00 0.00 60 1018.1
20260831063031 56 226 2.0 4.0 0.00 0.00 0.00 60 1018.2
20260831061531 56 226 1.0 3.0 0.00 0.00 0.00 60 1018.2
20260831060032 57 223 2.0 4.0 0.00 0.00 0.00 60 1018.2
20260831054648 58 225 1.0 3.0 0.00 0.00 0.00 57 1018.2
20260831053031 58 226 1.0 3.0 0.00 0.00 0.00 57 1018.3
20260831051532 58 225 1.0 3.0 0.00 0.00 0.00 60 1018.4
20260831050106 58 225 1.0 3.0 0.00 0.00 0.00 62 1018.4
20260831044528 59 225 0.0 2.0 0.00 0.00 0.00 60 1018.5
20260831043030 59 225 1.0 4.0 0.00 0.00 0.00 60 1018.5
20260831041602 58 14 0.0 3.0 0.00 0.00 0.00 64 1018.4
20260831040031 58 22 0.0 0.0 0.00 0.00 0.00 64 1018.3
20260831033029 61 22 0.0 0.0 0.00 0.00 0.00 55 1018.0
20260831030035 66 22 0.0 0.0 0.00 0.00 0.00 45 1017.9
20260831023031 70 22 0.0 3.0 0.00 0.00 0.00 39 1017.7
20260831021531 72 27 0.0 3.0 0.00 0.00 0.00 38 1017.6
20260831014529 75 19 1.0 4.0 0.00 0.00 0.00 33 1017.6
20260831013029 77 17 0.0 4.0 0.00 0.00 0.00 31 1017.6
20260831011529 79 35 0.0 4.0 0.00 0.00 0.00 30 1017.6
20260831010031 80 32 0.0 3.0 0.00 0.00 0.00 28 1017.8
20260831004530 81 28 0.0 5.0 0.00 0.00 0.00 27 1017.9
20260831003029 82 34 1.0 6.0 0.00 0.00 0.00 27 1017.9
20260831001529 82 34 0.0 4.0 0.00 0.00 0.00 27 1017.9
20260830234531 83 34 1.0 6.0 0.00 0.00 0.00 27 1018.1
20260830233031 82 39 1.0 5.0 0.00 0.00 0.00 27 1018.3
20260830231529 82 41 1.0 4.0 0.00 0.00 0.00 27 1018.3
20260830230029 82 41 1.0 4.0 0.00 0.00 0.00 27 1018.5
20260830223031 81 28 1.0 6.0 0.00 0.00 0.00 28 1018.9
20260830221531 81 47 1.0 5.0 0.00 0.00 0.00 29 1019.1
20260830220031 80 31 1.0 5.0 0.00 0.00 0.00 29 1019.5
20260830214607 81 29 1.0 6.0 0.00 0.00 0.00 29 1019.6
20260830211605 81 49 0.0 3.0 0.00 0.00 0.00 30 1019.8
20260830210030 81 50 0.0 4.0 0.00 0.00 0.00 31 1020.0
20260830204533 80 74 1.0 4.0 0.00 0.00 0.00 31 1020.1
20260830203029 81 41 1.0 4.0 0.00 0.00 0.00 31 1020.3
20260830200031 80 48 0.0 3.0 0.00 0.00 0.00 32 1020.5
20260830194530 79 53 0.0 4.0 0.00 0.00 0.00 33 1020.7
20260830193031 78 51 0.0 5.0 0.00 0.00 0.00 34 1020.9
20260830191531 78 61 0.0 3.0 0.00 0.00 0.00 34 1021.0
20260830190032 77 36 0.0 3.0 0.00 0.00 0.00 36 1021.3
20260830183031 75 37 0.0 4.0 0.00 0.00 0.00 39 1021.6
20260830181529 72 312 0.0 2.0 0.00 0.00 0.00 43 1021.7
20260830180106 69 33 0.0 2.0 0.00 0.00 0.00 45 1021.7
20260830171529 67 67 0.0 2.0 0.00 0.00 0.00 49 1022.1
20260830170033 65 52 0.0 2.0 0.00 0.00 0.00 52 1022.2
20260830164534 63 43 0.0 1.0 0.00 0.00 0.00 57 1022.4
20260830163031 60 44 0.0 2.0 0.00 0.00 0.00 62 1022.6
20260830161530 57 32 0.0 1.0 0.00 0.00 0.00 67 1022.9
20260830160031 55 307 0.0 2.0 0.00 0.00 0.00 71 1023.0
20260830154530 53 225 0.0 2.0 0.00 0.00 0.00 72 1023.0
20260830153029 50 225 1.0 2.0 0.00 0.00 0.00 73 1023.1
20260830151532 49 225 0.0 2.0 0.00 0.00 0.00 75 1023.1
20260830150028 47 225 1.0 2.0 0.00 0.00 0.00 78 1023.0
20260830144528 46 225 0.0 3.0 0.00 0.00 0.00 82 1023.0
20260830143104 44 225 0.0 2.0 0.00 0.00 0.00 84 1022.9
20260830140031 42 270 0.0 0.0 0.00 0.00 0.00 84 1022.5
20260830133035 42 251 1.0 3.0 0.00 0.00 0.00 83 1022.3
20260830131531 42 247 0.0 2.0 0.00 0.00 0.00 82 1022.3
20260830130029 43 253 0.0 2.0 0.00 0.00 0.00 80 1022.2
20260830123031 44 225 2.0 5.0 0.00 0.00 0.00 78 1022.1
20260830121530 45 226 2.0 4.0 0.00 0.00 0.00 77 1022.2
20260830114530 45 229 1.0 4.0 0.00 0.00 0.00 78 1022.1
20260830113029 45 225 1.0 4.0 0.00 0.00 0.00 77 1022.1
20260830111529 46 234 1.0 5.0 0.00 0.00 0.00 75 1022.0
20260830110032 47 278 0.0 4.0 0.00 0.00 0.00 75 1022.0
20260830104531 46 263 1.0 4.0 0.00 0.00 0.00 74 1022.0
20260830103144 48 251 1.0 3.0 0.00 0.00 0.00 72 1022.1
20260830101531 49 279 1.0 4.0 0.00 0.00 0.00 72 1022.0
20260830100031 48 288 1.0 4.0 0.00 0.00 0.00 77 1022.0